User: anonymous   Login
Location: Unspecified
(0.0000°N, 0.0000°E)
Time: 07:05:10
(UTC+00:00)
Language:

AO-Echo - Orbit

View from above orbital plane
View from above orbital plane
View from above satellite
View from above satellite

Ground track
Ground track

The orbit data is extracted from the following two-line orbital elements,

1 28375U 04025K   18293.35888396 +.00000001 +00000-0 +13950-4 0  9992
2 28375 098.3900 222.6072 0081340 245.6835 113.5845 14.41901912752391
Epoch (UTC): 20 October 2018 08:36:47
Eccentricity: 0.0081340
inclination: 98.3900°
perigee height: 694 km
apogee height: 810 km
right ascension of ascending node: 222.6072°
argument of perigee: 245.6835°
revolutions per day: 14.41901912
mean anomaly at epoch: 113.5845°
orbit number at epoch: 75239

The dashed part of the orbit path shows where the satellite is in the earth's shadow,  

DLR